This is the latest recevied weather packets stored in our database for station/object KP4OZ. If no packets are shown the sender has not sent any weather packets the latest 10 day(s).
| Time | Temp. | Humidity | Pressure | Rain* | Wind** | Luminosity | Snow |
|---|---|---|---|---|---|---|---|
| 1777476809 | 29.44° C | 73% | 1015.3 hPa | 0 mm | - | - | - |
| 1777476506 | 29.44° C | 72% | 1015.2 hPa | 0 mm | - | - | - |
| 1777476203 | 30° C | 71% | 1015.1 hPa | 0 mm | - | - | - |
| 1777475898 | 29.44° C | 71% | 1015.3 hPa | 0 mm | - | - | - |
| 1777475595 | 29.44° C | 72% | 1015.3 hPa | 0 mm | - | - | - |
| 1777475291 | 29.44° C | 73% | 1015.5 hPa | 0 mm | - | - | - |
| 1777474986 | 29.44° C | 73% | 1015.3 hPa | 0 mm | - | - | - |
| 1777474683 | 29.44° C | 73% | 1015.2 hPa | 0 mm | - | - | - |
| 1777474380 | 29.44° C | 75% | 1015.3 hPa | 0 mm | - | - | - |
| 1777474075 | 29.44° C | 76% | 1015.2 hPa | 0 mm | - | - | - |
| 1777473774 | 29.44° C | 75% | 1015.4 hPa | 0 mm | - | - | - |
| 1777473470 | 29.44° C | 74% | 1015.1 hPa | 0 mm | - | - | - |
| 1777473166 | 29.44° C | 74% | 1015.3 hPa | 0 mm | - | - | - |
| 1777472863 | 29.44° C | 73% | 1015.5 hPa | 0 mm | - | - | - |
| 1777472559 | 30° C | 72% | 1015.3 hPa | 0 mm | - | - | - |
| 1777472256 | 30.56° C | 71% | 1015.3 hPa | 0 mm | - | - | - |
| 1777471952 | 30.56° C | 64% | 1015.4 hPa | 0 mm | - | - | - |
| 1777471649 | 30.56° C | 64% | 1015.4 hPa | 0 mm | - | - | - |
| 1777471346 | 29.44° C | 66% | 1015.4 hPa | 0 mm | - | - | - |
| 1777471042 | 29.44° C | 68% | 1015.6 hPa | 0 mm | - | - | - |
| 1777470739 | 29.44° C | 68% | 1015.5 hPa | 0 mm | - | - | - |
| 1777470435 | 29.44° C | 70% | 1015.3 hPa | 0 mm | - | - | - |
| 1777470132 | 30° C | 70% | 1015.5 hPa | 0 mm | - | - | - |
| 1777469828 | 30.56° C | 68% | 1015.5 hPa | 0 mm | - | - | - |
| 1777469524 | 30° C | 70% | 1015.5 hPa | 0 mm | - | - | - |
* Rain latest hour (hover to see other rain measurements)
** Current wind speed in m/s (hover to see current wind gust speed)